Regional Weather Roundup
Issued by NWS

Home | Current Version | Previous Version | Graphics & Text | Print | Product List | Glossary On
Versions: 1 2 3 4 5 6 7 8 9 10 11 12 13 14 15 16 17 18 19 20 21 22 23 24 25 26 27 28 29 30 31 32 33 34 35 36 37 38 39 40 41 42 43 44 45 46 47 48 49 50
003
ASUS44 KJAN 251503
RWRMS

MISSISSIPPI HOURLY WEATHER ROUNDUP
NATIONAL WEATHER SERVICE JACKSON MS
900 AM CST SUN JAN 25 2015

NOTE: "FAIR: INDICATES FEW OR NO CLOUDS BELOW 12,000 FEET WITH NO
SIGNIFICANT WEATHER AND/OR OBSTRUCTIONS TO VISIBILITY.

MSZ001>002-007>008-010>013-018>021-025>028-034>036-251600-
NORTHWEST MISSISSIPPI

CITY           SKY/WX    TMP DP  RH WIND       PRES   REMARKS
CLARKSDALE     FAIR      45  37  76 S14       29.79F
CLEVELAND      FAIR      44  41  87 SW14      29.83R
GREENWOOD      SUNNY     47  38  71 SW16      29.85F
GREENVILLE     MOSUNNY   48  38  68 SW14      29.84F
GRENADA        FAIR      45  37  76 SW6       29.84F
OLIVE BRANCH   PTSUNNY   43  39  87 S13G18    29.75F
OXFORD         FAIR      41  34  75 SW9       29.82F
TUNICA         CLOUDY    43  37  81 S15       29.77F
$$

MSZ003>006-009-014>017-022>024-029>033-037>039-251600-
NORTHEAST MISSISSIPPI

CITY           SKY/WX    TMP DP  RH WIND       PRES   REMARKS
COLUMBUS AFB   SUNNY     43  36  76 S9        29.88F
CORINTH        FAIR      43  36  75 S12       29.78F
GOLDN TRIANGLE SUNNY     43  36  75 SW9       29.88F
STARKVILLE     FAIR      43  37  81 SW6       29.88F
TUPELO         SUNNY     42  35  76 S8        29.83F
$$

MSZ040-058-251600-
CENTRAL MISSISSIPPI

CITY           SKY/WX    TMP DP  RH WIND       PRES   REMARKS
JACKSON INTL   SUNNY     46  39  76 S8        29.93F
JACKSON HAWKNS SUNNY     48  39  71 S6        29.92F
MERIDIAN KEY   SUNNY     42  38  85 S12       29.95F
MERIDIAN NAS   SUNNY     47  37  68 SW7       29.93F
RAYMOND        FAIR      45  39  81 MISG      29.92F
VICKSBURG      SUNNY     50  37  61 SW8       29.92F
$$

MSZ059>079-251600-
SOUTH MISSISSIPPI

CITY           SKY/WX    TMP DP  RH WIND       PRES   REMARKS
BROOKHAVEN     FAIR      46  39  76 SW8       29.98S
HATTIESBURG    SUNNY     48  41  76 S8        30.00F
MCCOMB         SUNNY     44  41  89 SW5       29.99S
NATCHEZ        SUNNY     48  39  71 S7        29.97S
PINE BELT      SUNNY     46  30  53 SW6       29.99F
$$

MSZ080>082-251600-
COASTAL MISSISSIPPI

CITY           SKY/WX    TMP DP  RH WIND       PRES   REMARKS
BAY ST LOUIS   SUNNY     48  45  87 W7        30.04S
BILOXI         SUNNY     53  47  82 SW9       30.04R
PASCAGOULA     SUNNY     52  47  83 SW10      30.05R
GULFPORT       SUNNY     52  45  77 SW8       30.04R
$$



USA.gov is the U.S. government's official web portal to all federal, state and local government web resources and services.